User: anonymous   Login
Location: Unspecified
(0.0000°N, 0.0000°E)
Time: 10:34:30
(UTC+00:00)
Language:

UFO-8 - Orbit

View from above orbital plane
View from above orbital plane
View from above satellite
View from above satellite

Ground track
Ground track

The orbit data is extracted from the following two-line orbital elements,

1 25258U 98016A   18213.76116199 0.00000000  00000-0  00000-0 0    04
2 25258   7.9663  35.8429 0007409 325.8627  34.0921  1.00270000    08
Epoch (UTC): 01 August 2018 18:16:04
Eccentricity: 0.0007409
inclination: 7.9663°
perigee height: 35755 km
apogee height: 35818 km
right ascension of ascending node: 35.8429°
argument of perigee: 325.8627°
revolutions per day: 1.00270000
mean anomaly at epoch: 34.0921°
orbit number at epoch: 0

The dashed part of the orbit path shows where the satellite is in the earth's shadow,  

DLR